• Em Portugal
  • Lista de países
  • Para 7 dias
  • Temperatura da água
  • Mapas de satélite
  • Mapa do tempo
  • Widgets de tempo
  • user-avatar
    Iniciar Sessão

    Previsão horária em Al-Chums

    Hoje, 28 Maio, Segunda-feira

    Tempo Temperatura Precipitação Vento Pressão Humidade
    00:00 +27°C° 0 mm 2 m/s 715 mmHg 55%
    01:00 +26°C° 0 mm 2 m/s 715 mmHg 58%
    02:00 +25°C° 0 mm 1 m/s 715 mmHg 60%
    03:00 +25°C° 0 mm 1 m/s 715 mmHg 61%
    04:00 +25°C° 0 mm 1 m/s 715 mmHg 62%
    05:00 +25°C° 0 mm 1 m/s 715 mmHg 63%
    06:00 +26°C° 0 mm 1 m/s 715 mmHg 57%
    07:00 +27°C° 0 mm 2 m/s 715 mmHg 51%
    08:00 +28°C° 0 mm 2 m/s 716 mmHg 45%
    09:00 +29°C° 0 mm 2 m/s 716 mmHg 41%
    10:00 +31°C° 0 mm 2 m/s 716 mmHg 37%
    11:00 +32°C° 0 mm 2 m/s 716 mmHg 33%
    12:00 +33°C° 0 mm 3 m/s 716 mmHg 33%
    13:00 +33°C° 0 mm 3 m/s 715 mmHg 32%
    14:00 +34°C° 0 mm 3 m/s 715 mmHg 32%
    15:00 +32°C° 0,9 mm 4 m/s 715 mmHg 40%
    16:00 +29°C° 0,9 mm 4 m/s 714 mmHg 47%
    17:00 +27°C° 0,9 mm 5 m/s 714 mmHg 55%
    18:00 +27°C° 0,6 mm 4 m/s 714 mmHg 54%
    19:00 +26°C° 0,6 mm 4 m/s 714 mmHg 54%
    20:00 +26°C° 0,6 mm 3 m/s 714 mmHg 53%
    21:00 +25°C° 0,5 mm 3 m/s 714 mmHg 53%
    22:00 +25°C° 0,5 mm 2 m/s 714 mmHg 53%
    23:00 +25°C° 0,5 mm 1 m/s 714 mmHg 53%

    Amanhã, 29 Maio, Terça-feira

    Tempo Temperatura Precipitação Vento Pressão Humidade
    00:00 +25°C° 0,1 mm 1 m/s 714 mmHg 54%
    01:00 +25°C° 0,1 mm 1 m/s 714 mmHg 55%
    02:00 +24°C° 0,1 mm 1 m/s 713 mmHg 57%
    03:00 +24°C° 0,1 mm 1 m/s 714 mmHg 60%
    04:00 +24°C° 0,1 mm 1 m/s 714 mmHg 62%
    05:00 +23°C° 0,1 mm 2 m/s 714 mmHg 65%
    06:00 +24°C° 0,2 mm 2 m/s 714 mmHg 62%
    07:00 +25°C° 0,2 mm 2 m/s 714 mmHg 58%
    08:00 +26°C° 0,2 mm 2 m/s 714 mmHg 54%
    09:00 +27°C° 0,2 mm 2 m/s 714 mmHg 50%
    10:00 +28°C° 0,2 mm 2 m/s 714 mmHg 46%
    11:00 +29°C° 0,2 mm 3 m/s 714 mmHg 42%
    12:00 +29°C° 0,5 mm 3 m/s 714 mmHg 41%
    13:00 +30°C° 0,5 mm 3 m/s 714 mmHg 40%
    14:00 +30°C° 0,5 mm 3 m/s 714 mmHg 38%
    15:00 +30°C° 0,3 mm 4 m/s 713 mmHg 41%
    16:00 +29°C° 0,3 mm 4 m/s 713 mmHg 43%
    17:00 +29°C° 0,3 mm 5 m/s 713 mmHg 45%
    18:00 +27°C° 0,1 mm 4 m/s 713 mmHg 51%
    19:00 +26°C° 0,1 mm 4 m/s 713 mmHg 57%
    20:00 +23°C° 0,1 mm 4 m/s 713 mmHg 63%
    21:00 +24°C° 0 mm 3 m/s 713 mmHg 66%
    22:00 +22°C° 0 mm 3 m/s 713 mmHg 68%
    23:00 +22°C° 0 mm 3 m/s 713 mmHg 70%

    Depois de amanhã, 30 Maio, Quarta-feira

    Tempo Temperatura Precipitação Vento Pressão Humidade
    00:00 +23°C° 0 mm 2 m/s 713 mmHg 72%
    01:00 +21°C° 0 mm 2 m/s 713 mmHg 75%
    02:00 +21°C° 0 mm 2 m/s 713 mmHg 77%
    03:00 +21°C° 0 mm 2 m/s 713 mmHg 78%
    04:00 +20°C° 0 mm 2 m/s 713 mmHg 79%
    05:00 +21°C° 0 mm 1 m/s 713 mmHg 80%
    06:00 +21°C° 0 mm 2 m/s 713 mmHg 74%
    07:00 +23°C° 0 mm 2 m/s 714 mmHg 67%
    08:00 +25°C° 0 mm 2 m/s 714 mmHg 60%
    09:00 +26°C° 0 mm 2 m/s 714 mmHg 55%
    10:00 +27°C° 0 mm 3 m/s 714 mmHg 50%
    11:00 +28°C° 0 mm 3 m/s 714 mmHg 45%
    12:00 +28°C° 0,2 mm 3 m/s 714 mmHg 44%
    13:00 +29°C° 0,2 mm 4 m/s 714 mmHg 43%
    14:00 +29°C° 0,2 mm 5 m/s 714 mmHg 42%
    15:00 +29°C° 0,3 mm 5 m/s 714 mmHg 46%
    16:00 +28°C° 0,3 mm 5 m/s 713 mmHg 49%
    17:00 +27°C° 0,3 mm 6 m/s 713 mmHg 53%
    18:00 +26°C° 0 mm 5 m/s 713 mmHg 58%
    19:00 +25°C° 0 mm 5 m/s 714 mmHg 64%
    20:00 +23°C° 0 mm 5 m/s 714 mmHg 70%
    21:00 +22°C° 0 mm 4 m/s 714 mmHg 72%
    22:00 +22°C° 0 mm 4 m/s 714 mmHg 73%
    23:00 +21°C° 0 mm 4 m/s 714 mmHg 75%

    31 Maio, Quinta-feira

    Tempo Temperatura Precipitação Vento Pressão Humidade
    00:00 +21°C° 0 mm 4 m/s 714 mmHg 76%
    01:00 +21°C° 0 mm 3 m/s 713 mmHg 77%
    02:00 +20°C° 0 mm 3 m/s 713 mmHg 78%
    03:00 +20°C° 0 mm 3 m/s 713 mmHg 78%
    04:00 +20°C° 0 mm 3 m/s 713 mmHg 78%
    05:00 +20°C° 0 mm 3 m/s 713 mmHg 78%
    06:00 +21°C° 0 mm 3 m/s 714 mmHg 71%
    07:00 +22°C° 0 mm 4 m/s 714 mmHg 64%
    08:00 +25°C° 0 mm 4 m/s 715 mmHg 57%
    09:00 +26°C° 0 mm 4 m/s 715 mmHg 52%
    10:00 +27°C° 0 mm 5 m/s 715 mmHg 48%
    11:00 +28°C° 0 mm 5 m/s 715 mmHg 44%
    12:00 +28°C° 0 mm 5 m/s 715 mmHg 44%
    13:00 +28°C° 0 mm 5 m/s 714 mmHg 43%
    14:00 +29°C° 0 mm 6 m/s 714 mmHg 43%
    15:00 +28°C° 0 mm 6 m/s 714 mmHg 46%
    16:00 +27°C° 0 mm 6 m/s 714 mmHg 50%
    17:00 +27°C° 0 mm 6 m/s 714 mmHg 53%
    18:00 +24°C° 0 mm 6 m/s 714 mmHg 59%
    19:00 +23°C° 0 mm 5 m/s 714 mmHg 64%
    20:00 +22°C° 0 mm 4 m/s 714 mmHg 70%
    21:00 +22°C° 0 mm 4 m/s 714 mmHg 72%
    22:00 +22°C° 0 mm 3 m/s 714 mmHg 74%
    23:00 +21°C° 0 mm 3 m/s 714 mmHg 76%

    1 Junho, Sexta-feira

    Tempo Temperatura Precipitação Vento Pressão Humidade
    00:00 +21°C° 0 mm 2 m/s 714 mmHg 78%
    01:00 +21°C° 0 mm 2 m/s 714 mmHg 79%
    02:00 +20°C° 0 mm 2 m/s 714 mmHg 80%
    03:00 +20°C° 0 mm 2 m/s 714 mmHg 80%
    04:00 +20°C° 0 mm 2 m/s 714 mmHg 80%
    05:00 +20°C° 0 mm 2 m/s 714 mmHg 80%
    06:00 +21°C° 0 mm 2 m/s 714 mmHg 72%
    07:00 +23°C° 0 mm 2 m/s 715 mmHg 64%
    08:00 +25°C° 0 mm 2 m/s 715 mmHg 55%
    09:00 +26°C° 0 mm 2 m/s 715 mmHg 50%
    10:00 +27°C° 0 mm 3 m/s 715 mmHg 45%
    11:00 +28°C° 0 mm 3 m/s 715 mmHg 40%
    12:00 +29°C° 0 mm 4 m/s 715 mmHg 40%
    13:00 +29°C° 0 mm 4 m/s 714 mmHg 40%
    14:00 +29°C° 0 mm 5 m/s 714 mmHg 40%
    15:00 +29°C° 0,1 mm 5 m/s 714 mmHg 45%
    16:00 +28°C° 0,1 mm 6 m/s 714 mmHg 50%
    17:00 +27°C° 0,1 mm 6 m/s 714 mmHg 56%
    18:00 +26°C° 0,3 mm 6 m/s 714 mmHg 61%
    19:00 +25°C° 0,3 mm 5 m/s 714 mmHg 67%
    20:00 +23°C° 0,3 mm 5 m/s 714 mmHg 73%
    21:00 +22°C° 0 mm 4 m/s 714 mmHg 74%
    22:00 +22°C° 0 mm 3 m/s 714 mmHg 76%
    23:00 +21°C° 0 mm 3 m/s 714 mmHg 78%

    2 Junho, Sábado

    Tempo Temperatura Precipitação Vento Pressão Humidade
    00:00 +21°C° 0 mm 3 m/s 714 mmHg 78%
    01:00 +21°C° 0 mm 2 m/s 714 mmHg 79%
    02:00 +20°C° 0 mm 2 m/s 714 mmHg 80%
    03:00 +20°C° 0 mm 2 m/s 714 mmHg 80%
    04:00 +20°C° 0 mm 2 m/s 714 mmHg 79%
    05:00 +20°C° 0 mm 2 m/s 714 mmHg 79%
    06:00 +21°C° 0 mm 2 m/s 715 mmHg 70%
    07:00 +23°C° 0 mm 2 m/s 715 mmHg 61%
    08:00 +24°C° 0 mm 3 m/s 715 mmHg 53%
    09:00 +26°C° 0 mm 3 m/s 715 mmHg 48%
    10:00 +27°C° 0 mm 3 m/s 715 mmHg 43%
    11:00 +28°C° 0 mm 3 m/s 715 mmHg 39%
    12:00 +29°C° 0 mm 4 m/s 715 mmHg 39%
    13:00 +29°C° 0 mm 4 m/s 715 mmHg 39%
    14:00 +30°C° 0 mm 5 m/s 715 mmHg 39%
    15:00 +29°C° 0 mm 5 m/s 714 mmHg 42%
    16:00 +28°C° 0 mm 5 m/s 714 mmHg 46%
    17:00 +28°C° 0 mm 5 m/s 714 mmHg 49%
    18:00 +26°C° 0 mm 5 m/s 714 mmHg 55%
    19:00 +25°C° 0 mm 5 m/s 715 mmHg 60%
    20:00 +23°C° 0 mm 4 m/s 715 mmHg 66%
    21:00 +22°C° 0 mm 4 m/s 715 mmHg 68%
    22:00 +22°C° 0 mm 3 m/s 715 mmHg 69%
    23:00 +21°C° 0 mm 3 m/s 715 mmHg 71%
    Mostrar mais